TimeAKDT,TemperatureF,Dew PointF,Humidity,Sea Level PressureIn,VisibilityMPH,Wind Direction,Wind SpeedMPH,Gust SpeedMPH,PrecipitationIn,Events,Conditions,WindDirDegrees,DateUTC
12:16 AM,44.6,42.8,93,29.71,10.0,SE,25.3,-,N/A,,Overcast,130,2013-06-21 08:16:00
12:36 AM,44.6,42.8,93,29.72,8.0,SE,24.2,-,N/A,,Overcast,130,2013-06-21 08:36:00
12:56 AM,44.6,42.8,93,29.72,9.0,SE,24.2,-,N/A,,Overcast,130,2013-06-21 08:56:00
1:16 AM,44.6,41.0,87,29.72,10.0,SE,23.0,-,N/A,,Overcast,130,2013-06-21 09:16:00
1:36 AM,44.6,41.0,87,29.72,10.0,SE,23.0,26.5,N/A,,Overcast,140,2013-06-21 09:36:00
1:56 AM,44.6,39.2,81,29.72,10.0,SE,23.0,-,N/A,,Overcast,140,2013-06-21 09:56:00
2:16 AM,44.6,39.2,81,29.72,9.0,SE,23.0,28.8,N/A,,Overcast,130,2013-06-21 10:16:00
2:36 AM,44.6,39.2,81,29.72,10.0,SE,21.9,-,N/A,,Overcast,130,2013-06-21 10:36:00
2:56 AM,44.6,39.2,81,29.72,10.0,ESE,23.0,-,N/A,,Overcast,120,2013-06-21 10:56:00
3:16 AM,42.8,39.2,87,29.72,10.0,ESE,19.6,-,N/A,,Overcast,120,2013-06-21 11:16:00
3:36 AM,42.8,39.2,87,29.72,10.0,ESE,17.3,24.2,N/A,,Overcast,120,2013-06-21 11:36:00
3:56 AM,42.8,39.2,87,29.71,10.0,ESE,17.3,-,N/A,,Overcast,120,2013-06-21 11:56:00
4:16 AM,42.8,39.2,87,29.71,10.0,SE,19.6,26.5,N/A,,Overcast,130,2013-06-21 12:16:00
4:36 AM,42.8,39.2,87,29.70,10.0,ESE,21.9,-,N/A,,Overcast,120,2013-06-21 12:36:00
4:56 AM,42.8,39.2,87,29.71,7.0,SE,20.7,-,N/A,,Overcast,130,2013-06-21 12:56:00
5:16 AM,42.8,39.2,87,29.70,8.0,ESE,11.5,20.7,N/A,,Overcast,110,2013-06-21 13:16:00
5:36 AM,42.8,39.2,87,29.70,10.0,ESE,16.1,26.5,N/A,,Overcast,120,2013-06-21 13:36:00
5:56 AM,44.6,39.2,81,29.69,10.0,ESE,20.7,27.6,N/A,,Overcast,120,2013-06-21 13:56:00
6:16 AM,44.6,39.2,81,29.68,10.0,ESE,26.5,-,N/A,,Overcast,120,2013-06-21 14:16:00
6:36 AM,44.6,39.2,81,29.68,10.0,ESE,23.0,-,N/A,,Overcast,120,2013-06-21 14:36:00
6:56 AM,44.6,39.2,81,29.68,10.0,ESE,23.0,-,N/A,,Overcast,120,2013-06-21 14:56:00
7:16 AM,44.6,39.2,81,29.67,10.0,ESE,18.4,25.3,N/A,,Overcast,120,2013-06-21 15:16:00
7:36 AM,44.6,39.2,81,29.67,10.0,ESE,24.2,29.9,N/A,,Overcast,120,2013-06-21 15:36:00
7:56 AM,44.6,39.2,81,29.66,10.0,ESE,24.2,31.1,N/A,,Overcast,120,2013-06-21 15:56:00
8:16 AM,44.6,39.2,81,29.66,10.0,SE,24.2,31.1,N/A,,Overcast,130,2013-06-21 16:16:00
8:36 AM,42.8,39.2,87,29.66,8.0,SE,23.0,32.2,N/A,,Overcast,130,2013-06-21 16:36:00
8:56 AM,42.8,39.2,87,29.65,7.0,ESE,24.2,-,0.01,,Overcast,120,2013-06-21 16:56:00
9:16 AM,42.8,39.2,87,29.65,9.0,ESE,24.2,-,0.02,,Overcast,120,2013-06-21 17:16:00
9:36 AM,42.8,39.2,87,29.64,6.0,SE,25.3,29.9,0.02,,Overcast,130,2013-06-21 17:36:00
9:56 AM,42.8,39.2,87,29.63,5.0,SE,26.5,-,0.02,,Overcast,130,2013-06-21 17:56:00
10:16 AM,42.8,39.2,87,29.63,5.0,SE,26.5,-,N/A,,Overcast,130,2013-06-21 18:16:00
10:36 AM,42.8,39.2,87,29.64,10.0,SE,23.0,-,N/A,,Overcast,130,2013-06-21 18:36:00
10:56 AM,42.8,39.2,87,29.64,10.0,SE,23.0,28.8,N/A,,Overcast,130,2013-06-21 18:56:00
11:16 AM,42.8,37.4,81,29.63,10.0,SE,24.2,-,N/A,,Overcast,130,2013-06-21 19:16:00
11:36 AM,42.8,39.2,87,29.64,10.0,SE,24.2,-,N/A,,Overcast,140,2013-06-21 19:36:00
11:56 AM,41.0,37.4,87,29.64,10.0,SE,26.5,-,N/A,,Overcast,140,2013-06-21 19:56:00
12:16 PM,41.0,39.2,93,29.64,10.0,SE,23.0,-,N/A,,Overcast,140,2013-06-21 20:16:00
12:36 PM,41.0,39.2,93,29.65,10.0,SSE,23.0,-,N/A,,Overcast,150,2013-06-21 20:36:00
12:56 PM,41.0,39.2,93,29.65,10.0,SSE,26.5,-,N/A,,Overcast,150,2013-06-21 20:56:00
1:16 PM,41.0,37.4,87,29.65,10.0,SSE,24.2,27.6,N/A,,Overcast,150,2013-06-21 21:16:00
1:36 PM,41.0,37.4,87,29.65,10.0,SSE,24.2,-,N/A,,Overcast,160,2013-06-21 21:36:00
1:56 PM,42.8,39.2,87,29.66,7.0,SSE,25.3,-,N/A,,Overcast,160,2013-06-21 21:56:00
2:16 PM,42.8,39.2,87,29.66,8.0,SSE,25.3,-,N/A,,Overcast,160,2013-06-21 22:16:00
2:36 PM,42.8,39.2,87,29.66,7.0,SSE,24.2,-,N/A,,Overcast,150,2013-06-21 22:36:00
2:56 PM,42.8,39.2,87,29.66,10.0,SSE,26.5,-,N/A,,Overcast,150,2013-06-21 22:56:00
3:16 PM,42.8,39.2,87,29.66,8.0,SSE,27.6,-,N/A,,Overcast,150,2013-06-21 23:16:00
3:36 PM,42.8,39.2,87,29.67,9.0,SSE,25.3,-,N/A,,Overcast,150,2013-06-21 23:36:00
3:56 PM,42.8,39.2,87,29.67,9.0,SSE,26.5,-,N/A,,Overcast,150,2013-06-21 23:56:00
4:16 PM,42.8,39.2,87,29.68,10.0,SSE,25.3,-,N/A,,Overcast,150,2013-06-22 00:16:00
4:36 PM,42.8,39.2,87,29.67,10.0,SSE,24.2,-,N/A,,Overcast,150,2013-06-22 00:36:00
4:56 PM,42.8,39.2,87,29.68,10.0,SSE,25.3,-,N/A,,Overcast,150,2013-06-22 00:56:00
5:16 PM,42.8,39.2,87,29.67,10.0,SSE,27.6,-,N/A,,Overcast,150,2013-06-22 01:16:00
5:36 PM,42.8,39.2,87,29.67,10.0,SSE,25.3,-,N/A,,Overcast,150,2013-06-22 01:36:00
5:56 PM,42.8,39.2,87,29.68,10.0,SSE,25.3,29.9,N/A,,Overcast,160,2013-06-22 01:56:00
6:16 PM,42.8,39.2,87,29.68,10.0,North,-9999.0,-,N/A,,Overcast,0,2013-06-22 02:16:00
6:36 PM,44.6,39.2,81,29.69,10.0,SSE,21.9,-,N/A,,Overcast,150,2013-06-22 02:36:00
6:56 PM,42.8,39.2,87,29.69,10.0,SSE,18.4,-,N/A,,Overcast,150,2013-06-22 02:56:00
7:16 PM,44.6,39.2,81,29.68,10.0,SSE,17.3,-,N/A,,Overcast,150,2013-06-22 03:16:00
7:36 PM,44.6,39.2,81,29.70,10.0,SE,9.2,18.4,N/A,,Overcast,130,2013-06-22 03:36:00
7:56 PM,44.6,39.2,81,29.68,10.0,SE,21.9,-,N/A,,Overcast,130,2013-06-22 03:56:00
8:16 PM,44.6,39.2,81,29.68,10.0,ESE,19.6,-,N/A,,Overcast,120,2013-06-22 04:16:00
8:36 PM,44.6,39.2,81,29.69,10.0,ESE,12.7,-,N/A,,Overcast,120,2013-06-22 04:36:00
8:56 PM,42.8,39.2,87,29.68,3.0,East,12.7,17.3,N/A,,Overcast,90,2013-06-22 04:56:00
9:16 PM,42.8,41.0,93,29.68,4.0,East,11.5,-,N/A,,Overcast,100,2013-06-22 05:16:00
9:36 PM,44.6,41.0,87,29.68,10.0,ESE,11.5,21.9,N/A,,Overcast,120,2013-06-22 05:36:00
9:56 PM,42.8,39.2,87,29.68,10.0,East,11.5,-,N/A,,Overcast,90,2013-06-22 05:56:00
10:16 PM,42.8,39.2,87,29.68,10.0,East,9.2,-,N/A,,Overcast,100,2013-06-22 06:16:00
10:36 PM,42.8,39.2,87,29.68,10.0,East,10.4,19.6,N/A,,Overcast,90,2013-06-22 06:36:00
10:56 PM,42.8,39.2,87,29.68,10.0,East,12.7,20.7,N/A,,Overcast,90,2013-06-22 06:56:00
11:16 PM,44.6,42.8,93,29.68,10.0,ESE,18.4,-,N/A,,Overcast,120,2013-06-22 07:16:00
11:36 PM,46.4,42.8,87,29.68,10.0,ESE,20.7,-,N/A,,Mostly Cloudy,120,2013-06-22 07:36:00
11:56 PM,44.6,41.0,87,29.68,10.0,ESE,18.4,23.0,N/A,,Overcast,110,2013-06-22 07:56:00